VJC1804 VOHS-VVTS

Flight info

Callsign VJC1804
Flight time 4h 2m
Altitude 35000
Route VVZ L301 SADUS/N0456F370 L301 BKK N506 ELMOP R468 SAPEN SAPEN5G
Aircraft A21N/M-SDE3FGHIRWY/LB1

Departure

Time 2026-04-21 04:56
Airport Rajiv Gandhi International Airport (VOHS)

Arrival

Time 2026-04-21 08:59
Airport Tan Son Nhat International Airport (VVTS)
Time Latitude Longitude Altitude Speed Heading
2026-04-21 04:19 17.23423 78.42889 2006 ft 0 kts
2026-04-21 04:30 17.23419 78.42889 2006 ft 2 kts 360°
2026-04-21 04:30 17.23404 78.42890 2007 ft 2 kts 355°
2026-04-21 04:31 17.23384 78.42891 2007 ft 2 kts 357°
2026-04-21 04:31 17.23374 78.42891 2007 ft 2 kts 357°
2026-04-21 04:31 17.23356 78.42891 2008 ft 2 kts 16°
2026-04-21 04:31 17.23342 78.42884 2007 ft 2 kts 38°
2026-04-21 04:32 17.23335 78.42876 2007 ft 2 kts 53°
2026-04-21 04:32 17.23328 78.42863 2005 ft 2 kts 76°
2026-04-21 04:32 17.23327 78.42842 2004 ft 2 kts 94°
2026-04-21 04:32 17.23328 78.42827 2002 ft 1 kts 88°
2026-04-21 04:33 17.23327 78.42823 2002 ft 0 kts 89°
2026-04-21 04:35 17.23327 78.42822 2002 ft 0 kts 89°
2026-04-21 04:35 17.23327 78.42821 2002 ft 0 kts 89°
2026-04-21 04:36 17.23327 78.42820 2002 ft 0 kts 89°
2026-04-21 04:38 17.23327 78.42819 2002 ft 0 kts 89°
2026-04-21 04:40 17.23327 78.42821 2002 ft 0 kts 89°
2026-04-21 04:40 17.23327 78.42822 2002 ft 1 kts 92°
2026-04-21 04:41 17.23327 78.42840 2004 ft 3 kts 91°
2026-04-21 04:41 17.23326 78.42865 2006 ft 0 kts 89°
2026-04-21 04:42 17.23326 78.42870 2006 ft 1 kts 89°
2026-04-21 04:42 17.23326 78.42871 2006 ft 0 kts 89°
2026-04-21 04:43 17.23326 78.42876 2007 ft 1 kts 89°
2026-04-21 04:43 17.23327 78.42891 2008 ft 0 kts 89°
2026-04-21 04:44 17.23327 78.42899 2008 ft 2 kts 89°
2026-04-21 04:44 17.23327 78.42923 2010 ft 4 kts 89°
2026-04-21 04:44 17.23327 78.42928 2011 ft 4 kts 89°
2026-04-21 04:45 17.23328 78.42941 2012 ft 0 kts 89°
2026-04-21 04:45 17.23328 78.42949 2012 ft 3 kts 89°
2026-04-21 04:46 17.23328 78.42958 2013 ft 0 kts 89°
2026-04-21 04:46 17.23328 78.42973 2014 ft 3 kts 89°
2026-04-21 04:46 17.23328 78.42979 2014 ft 0 kts 89°
2026-04-21 04:46 17.23328 78.43004 2016 ft 1 kts 89°
2026-04-21 04:47 17.23328 78.43026 2017 ft 9 kts 89°
2026-04-21 04:47 17.23329 78.43084 2021 ft 6 kts 89°
2026-04-21 04:47 17.23330 78.43127 2021 ft 6 kts 88°
2026-04-21 04:47 17.23331 78.43181 2021 ft 8 kts 89°
2026-04-21 04:48 17.23332 78.43253 2018 ft 9 kts 88°
2026-04-21 04:48 17.23333 78.43329 2016 ft 10 kts 89°
2026-04-21 04:48 17.23335 78.43409 2014 ft 10 kts 89°
2026-04-21 04:48 17.23336 78.43490 2013 ft 11 kts 89°
2026-04-21 04:49 17.23337 78.43554 2013 ft 12 kts 89°
2026-04-21 04:49 17.23338 78.43631 2015 ft 9 kts 90°
2026-04-21 04:49 17.23328 78.43679 2019 ft 4 kts 132°
2026-04-21 04:49 17.23290 78.43694 2022 ft 8 kts 171°
2026-04-21 04:50 17.23215 78.43697 2025 ft 10 kts 179°
2026-04-21 04:50 17.23146 78.43697 2028 ft 9 kts 179°
2026-04-21 04:50 17.23093 78.43733 2030 ft 10 kts 95°
2026-04-21 04:50 17.23094 78.43823 2033 ft 16 kts 89°
2026-04-21 04:51 17.23096 78.43957 2038 ft 17 kts 89°
2026-04-21 04:51 17.23098 78.44079 2042 ft 16 kts 89°
2026-04-21 04:51 17.23100 78.44209 2046 ft 19 kts 89°
2026-04-21 04:51 17.23101 78.44355 2050 ft 19 kts 89°
2026-04-21 04:52 17.23103 78.44493 2048 ft 19 kts 89°
2026-04-21 04:52 17.23105 78.44637 2046 ft 20 kts 89°
2026-04-21 04:52 17.23108 78.44792 2039 ft 22 kts 88°
2026-04-21 04:52 17.23110 78.44946 2032 ft 21 kts 89°
2026-04-21 04:53 17.23111 78.45097 2028 ft 20 kts 89°
2026-04-21 04:53 17.23113 78.45242 2024 ft 15 kts 89°
2026-04-21 04:53 17.23097 78.45306 2023 ft 8 kts 142°
2026-04-21 04:53 17.23054 78.45320 2025 ft 5 kts 178°
2026-04-21 04:54 17.23022 78.45320 2026 ft 5 kts 184°
2026-04-21 04:54 17.22960 78.45290 2029 ft 7 kts 213°
2026-04-21 04:54 17.22933 78.45274 2030 ft 6 kts 207°
2026-04-21 04:54 17.22909 78.45244 2030 ft 5 kts 265°
2026-04-21 04:55 17.22909 78.45235 2031 ft 0 kts 270°
2026-04-21 04:55 17.22909 78.45145 2033 ft 36 kts 269°
2026-04-21 04:55 17.22904 78.44641 2042 ft 100 kts 268°
2026-04-21 04:55 17.22888 78.43698 2028 ft 157 kts 269°
2026-04-21 04:56 17.22831 78.42432 2202 ft 183 kts 268°
2026-04-21 04:56 17.22790 78.41097 2737 ft 187 kts 270°
2026-04-21 04:56 17.22851 78.39762 3398 ft 186 kts 284°
2026-04-21 04:56 17.23563 78.38673 3919 ft 185 kts 318°
2026-04-21 04:57 17.24621 78.37844 4149 ft 195 kts 324°
2026-04-21 04:57 17.25765 78.37000 4369 ft 207 kts 323°
2026-04-21 04:57 17.27369 78.35741 4670 ft 222 kts 321°
2026-04-21 04:57 17.28184 78.35072 4808 ft 231 kts 321°
2026-04-21 04:58 17.29494 78.33974 4971 ft 249 kts 320°
2026-04-21 04:58 17.30986 78.32930 5212 ft 264 kts 336°
2026-04-21 04:58 17.32817 78.32498 5538 ft 276 kts 356°
2026-04-21 04:58 17.34750 78.32456 6064 ft 279 kts 359°
2026-04-21 04:59 17.36696 78.32444 6644 ft 281 kts 360°
2026-04-21 04:59 17.38629 78.32722 7170 ft 284 kts 22°
2026-04-21 04:59 17.40237 78.33896 7731 ft 286 kts 49°
2026-04-21 04:59 17.41170 78.35709 8312 ft 287 kts 75°
2026-04-21 05:00 17.41332 78.37781 8908 ft 288 kts 89°
2026-04-21 05:00 17.41335 78.39877 9477 ft 290 kts 89°
2026-04-21 05:00 17.41377 78.44134 10462 ft 301 kts 88°
2026-04-21 05:01 17.41410 78.46371 10711 ft 315 kts 88°
2026-04-21 05:01 17.41448 78.48695 11080 ft 324 kts 88°
2026-04-21 05:01 17.41489 78.51054 11632 ft 326 kts 88°
2026-04-21 05:01 17.41530 78.53418 12227 ft 327 kts 88°
2026-04-21 05:02 17.41573 78.55793 12791 ft 328 kts 88°
2026-04-21 05:02 17.41616 78.58182 13340 ft 330 kts 89°
2026-04-21 05:02 17.41659 78.60590 13854 ft 333 kts 89°
2026-04-21 05:02 17.41702 78.63019 14326 ft 336 kts 89°
2026-04-21 05:03 17.41761 78.66286 14936 ft 341 kts 89°
2026-04-21 05:03 17.41791 78.67959 15228 ft 344 kts 89°
2026-04-21 05:03 17.41835 78.70458 15642 ft 347 kts 89°
2026-04-21 05:03 17.41880 78.73010 16056 ft 351 kts 89°
2026-04-21 05:04 17.41924 78.75577 16455 ft 355 kts 90°
2026-04-21 05:04 17.41968 78.78168 16856 ft 358 kts 90°
2026-04-21 05:04 17.42011 78.80781 17244 ft 361 kts 90°
2026-04-21 05:04 17.42056 78.83415 17641 ft 364 kts 90°
2026-04-21 05:05 17.42116 78.86948 18151 ft 368 kts 90°
2026-04-21 05:05 17.42147 78.88753 18403 ft 371 kts 90°
2026-04-21 05:05 17.42192 78.91460 18769 ft 374 kts 90°
2026-04-21 05:05 17.42237 78.94192 19127 ft 378 kts 90°
2026-04-21 05:06 17.42297 78.97853 19617 ft 381 kts 90°
2026-04-21 05:06 17.42327 78.99722 19859 ft 384 kts 90°
2026-04-21 05:06 17.42373 79.02523 20208 ft 387 kts 91°
2026-04-21 05:06 17.42418 79.05347 20551 ft 390 kts 91°
2026-04-21 05:07 17.42461 79.08192 20907 ft 393 kts 91°
2026-04-21 05:07 17.42506 79.11056 21260 ft 395 kts 91°
2026-04-21 05:07 17.42565 79.14889 21702 ft 399 kts 91°
2026-04-21 05:07 17.42609 79.17800 22037 ft 402 kts 91°
2026-04-21 05:08 17.42639 79.19767 22263 ft 403 kts 91°
2026-04-21 05:08 17.42697 79.23676 22691 ft 407 kts 91°
2026-04-21 05:08 17.42727 79.25671 22902 ft 409 kts 91°
2026-04-21 05:08 17.42771 79.28651 23211 ft 412 kts 91°
2026-04-21 05:09 17.42829 79.32645 23605 ft 416 kts 91°
2026-04-21 05:09 17.42859 79.34682 23788 ft 418 kts 91°
2026-04-21 05:09 17.42903 79.37734 24072 ft 421 kts 91°
2026-04-21 05:09 17.42947 79.40807 24357 ft 424 kts 91°
2026-04-21 05:10 17.42990 79.43904 24614 ft 428 kts 91°
2026-04-21 05:10 17.43034 79.47023 24897 ft 430 kts 91°
2026-04-21 05:10 17.43077 79.50157 25183 ft 433 kts 91°
2026-04-21 05:10 17.43120 79.53308 25451 ft 435 kts 91°
2026-04-21 05:11 17.43162 79.56479 25724 ft 438 kts 91°
2026-04-21 05:11 17.43244 79.59669 25983 ft 442 kts 89°
2026-04-21 05:11 17.43625 79.63934 26329 ft 447 kts 84°
2026-04-21 05:11 17.43945 79.66092 26497 ft 449 kts 82°
2026-04-21 05:12 17.44479 79.69312 26752 ft 451 kts 82°
2026-04-21 05:12 17.45027 79.72536 26993 ft 454 kts 82°
2026-04-21 05:12 17.45578 79.75790 27230 ft 456 kts 82°
2026-04-21 05:12 17.46126 79.79060 27472 ft 458 kts 82°
2026-04-21 05:13 17.46674 79.82349 27717 ft 461 kts 82°
2026-04-21 05:13 17.47221 79.85654 27958 ft 463 kts 82°
2026-04-21 05:13 17.47769 79.88980 28196 ft 466 kts 82°
2026-04-21 05:13 17.48501 79.93426 28497 ft 469 kts 82°
2026-04-21 05:14 17.48872 79.95685 28653 ft 471 kts 82°
2026-04-21 05:14 17.49426 79.99064 28887 ft 473 kts 82°
2026-04-21 05:14 17.49982 80.02442 29284 ft 471 kts 82°
2026-04-21 05:14 17.50451 80.05814 29636 ft 468 kts 86°
2026-04-21 05:15 17.50718 80.09203 29871 ft 468 kts 90°
2026-04-21 05:15 17.50804 80.12607 30101 ft 469 kts 92°
2026-04-21 05:15 17.50851 80.17145 30418 ft 471 kts 93°
2026-04-21 05:15 17.50869 80.19447 30580 ft 472 kts 93°
2026-04-21 05:16 17.50902 80.22884 30794 ft 474 kts 94°
2026-04-21 05:16 17.50938 80.26333 31018 ft 475 kts 93°
2026-04-21 05:16 17.50978 80.29789 31240 ft 477 kts 94°
2026-04-21 05:16 17.51019 80.33257 31461 ft 478 kts 94°
2026-04-21 05:17 17.51061 80.36736 31685 ft 480 kts 94°
2026-04-21 05:17 17.51103 80.40222 31909 ft 481 kts 94°
2026-04-21 05:17 17.51145 80.43720 32110 ft 482 kts 94°
2026-04-21 05:17 17.51199 80.48385 32368 ft 485 kts 94°
2026-04-21 05:18 17.51227 80.50750 32509 ft 485 kts 94°
2026-04-21 05:18 17.51268 80.54280 32702 ft 487 kts 94°
2026-04-21 05:18 17.51309 80.57822 32925 ft 488 kts 95°
2026-04-21 05:18 17.51349 80.61370 33166 ft 489 kts 95°
2026-04-21 05:19 17.51387 80.64925 33388 ft 490 kts 95°
2026-04-21 05:19 17.51426 80.68492 33594 ft 491 kts 95°
2026-04-21 05:19 17.51464 80.72075 33799 ft 492 kts 95°
2026-04-21 05:19 17.51501 80.75653 33995 ft 493 kts 95°
2026-04-21 05:20 17.51537 80.79240 34172 ft 495 kts 95°
2026-04-21 05:20 17.51574 80.82836 34352 ft 496 kts 95°
2026-04-21 05:20 17.51609 80.86439 34533 ft 497 kts 95°
2026-04-21 05:20 17.51645 80.90047 34752 ft 497 kts 95°
2026-04-21 05:21 17.51681 80.93657 34876 ft 498 kts 95°
2026-04-21 05:21 17.51714 80.97274 34883 ft 497 kts 95°
2026-04-21 05:21 17.51781 81.04481 34889 ft 495 kts 95°
2026-04-21 05:22 17.51844 81.11675 34877 ft 495 kts 95°
2026-04-21 05:22 17.51904 81.18877 34858 ft 496 kts 95°
2026-04-21 05:23 17.51962 81.26084 34840 ft 496 kts 95°
2026-04-21 05:23 17.52027 81.34476 34837 ft 496 kts 95°
2026-04-21 05:24 17.52072 81.40503 34846 ft 496 kts 95°
2026-04-21 05:24 17.52124 81.47704 34857 ft 496 kts 95°
2026-04-21 05:25 17.52172 81.54905 34869 ft 495 kts 95°
2026-04-21 05:25 17.52216 81.62104 34881 ft 496 kts 95°
2026-04-21 05:26 17.52262 81.69327 34892 ft 495 kts 95°
2026-04-21 05:26 17.52300 81.76538 34906 ft 496 kts 95°
2026-04-21 05:27 17.52338 81.83755 34906 ft 496 kts 95°
2026-04-21 05:27 17.52375 81.90962 34902 ft 496 kts 95°
2026-04-21 05:28 17.52407 81.98158 34895 ft 496 kts 95°
2026-04-21 05:28 17.52438 82.05362 34887 ft 496 kts 95°
2026-04-21 05:29 17.52467 82.12566 34889 ft 496 kts 95°
2026-04-21 05:29 17.52725 82.19775 34894 ft 499 kts 90°
2026-04-21 05:30 17.53624 82.26977 34895 ft 500 kts 86°
2026-04-21 05:30 17.54633 82.34168 34887 ft 500 kts 86°
2026-04-21 05:31 17.55630 82.41368 34879 ft 501 kts 86°
2026-04-21 05:31 17.56612 82.48575 34870 ft 501 kts 86°
2026-04-21 05:32 17.57591 82.55789 34862 ft 501 kts 86°
2026-04-21 05:32 17.58566 82.63007 34856 ft 501 kts 86°
2026-04-21 05:33 17.59533 82.70184 34847 ft 501 kts 86°
2026-04-21 05:33 17.60503 82.77385 34838 ft 500 kts 86°
2026-04-21 05:34 17.61468 82.84594 34830 ft 501 kts 86°
2026-04-21 05:34 17.62432 82.91797 34826 ft 500 kts 86°
2026-04-21 05:35 17.63391 82.98988 34825 ft 500 kts 86°
2026-04-21 05:35 17.64346 83.06188 34824 ft 500 kts 86°
2026-04-21 05:36 17.65301 83.13387 34827 ft 499 kts 86°
2026-04-21 05:36 17.65961 83.20586 34826 ft 495 kts 93°
2026-04-21 05:37 17.65707 83.27724 34826 ft 489 kts 101°
2026-04-21 05:37 17.64541 83.34674 34826 ft 483 kts 110°
2026-04-21 05:38 17.62823 83.41458 34822 ft 482 kts 111°
2026-04-21 05:38 17.61082 83.48237 34819 ft 483 kts 110°
2026-04-21 05:39 17.59362 83.55024 34814 ft 482 kts 110°
2026-04-21 05:39 17.57649 83.61797 34815 ft 482 kts 110°
2026-04-21 05:40 17.55936 83.68575 34814 ft 483 kts 110°
2026-04-21 05:40 17.54220 83.75353 34819 ft 483 kts 110°
2026-04-21 05:41 17.52504 83.82131 34826 ft 482 kts 110°
2026-04-21 05:41 17.50787 83.88904 34831 ft 481 kts 110°
2026-04-21 05:42 17.49087 83.95670 34834 ft 481 kts 110°
2026-04-21 05:42 17.47436 84.02454 34838 ft 482 kts 109°
2026-04-21 05:43 17.45789 84.09237 34840 ft 481 kts 109°
2026-04-21 05:43 17.44137 84.16017 34843 ft 481 kts 109°
2026-04-21 05:44 17.42480 84.22797 34841 ft 482 kts 109°
2026-04-21 05:44 17.40819 84.29589 34841 ft 482 kts 109°
2026-04-21 05:45 17.39154 84.36379 34843 ft 481 kts 109°
2026-04-21 05:45 17.37493 84.43161 34844 ft 481 kts 109°
2026-04-21 05:46 17.35829 84.49934 34845 ft 481 kts 109°
2026-04-21 05:46 17.34204 84.56763 34846 ft 482 kts 108°
2026-04-21 05:47 17.32626 84.63512 34845 ft 482 kts 108°
2026-04-21 05:47 17.31022 84.70346 34847 ft 482 kts 109°
2026-04-21 05:48 17.29428 84.77132 34846 ft 481 kts 109°
2026-04-21 05:48 17.27830 84.83905 34848 ft 481 kts 109°
2026-04-21 05:49 17.26233 84.90671 34848 ft 480 kts 108°
2026-04-21 05:49 17.24370 84.98544 34837 ft 480 kts 108°
2026-04-21 05:50 17.23032 85.04194 34832 ft 480 kts 108°
2026-04-21 05:50 17.21430 85.10948 34832 ft 479 kts 108°
2026-04-21 05:51 17.19826 85.17707 34828 ft 480 kts 108°
2026-04-21 05:51 17.18219 85.24468 34829 ft 480 kts 108°
2026-04-21 05:52 17.16611 85.31221 34830 ft 480 kts 108°
2026-04-21 05:52 17.15048 85.37988 34833 ft 480 kts 108°
2026-04-21 05:53 17.13512 85.44708 34829 ft 480 kts 108°
2026-04-21 05:53 17.11951 85.51519 34831 ft 479 kts 108°
2026-04-21 05:54 17.10397 85.58279 34827 ft 479 kts 107°
2026-04-21 05:54 17.08842 85.65031 34832 ft 478 kts 108°
2026-04-21 05:55 17.07289 85.71769 34829 ft 478 kts 108°
2026-04-21 05:55 17.05732 85.78499 34829 ft 477 kts 107°
2026-04-21 05:56 17.04177 85.85227 34832 ft 478 kts 107°
2026-04-21 05:56 17.02617 85.91957 34830 ft 478 kts 107°
2026-04-21 05:57 17.01055 85.98693 34831 ft 478 kts 107°
2026-04-21 05:57 16.99490 86.05428 34834 ft 478 kts 108°
2026-04-21 05:58 16.97925 86.12149 34843 ft 477 kts 107°
2026-04-21 05:58 16.96359 86.18861 34853 ft 476 kts 107°
2026-04-21 05:59 16.94795 86.25559 34856 ft 476 kts 107°
2026-04-21 06:00 16.92443 86.35609 34858 ft 476 kts 107°
2026-04-21 06:00 16.90873 86.42305 34860 ft 476 kts 107°
2026-04-21 06:01 16.89301 86.48999 34858 ft 476 kts 107°
2026-04-21 06:01 16.87729 86.55695 34857 ft 477 kts 107°
2026-04-21 06:02 16.86150 86.62395 34859 ft 476 kts 107°
2026-04-21 06:02 16.84569 86.69096 34858 ft 477 kts 108°
2026-04-21 06:03 16.82983 86.75806 34858 ft 477 kts 108°
2026-04-21 06:03 16.81398 86.82512 34859 ft 477 kts 108°
2026-04-21 06:04 16.79810 86.89217 34861 ft 477 kts 108°
2026-04-21 06:04 16.78221 86.95915 34859 ft 477 kts 108°
2026-04-21 06:05 16.76643 87.02560 34862 ft 477 kts 108°
2026-04-21 06:05 16.75053 87.09254 34859 ft 477 kts 108°
2026-04-21 06:06 16.73446 87.15997 34859 ft 477 kts 107°
2026-04-21 06:06 16.71871 87.22684 34847 ft 476 kts 107°
2026-04-21 06:07 16.70315 87.29327 34846 ft 476 kts 107°
2026-04-21 06:07 16.68738 87.36060 34851 ft 476 kts 107°
2026-04-21 06:08 16.67168 87.42750 34852 ft 476 kts 107°
2026-04-21 06:08 16.65594 87.49442 34854 ft 477 kts 107°
2026-04-21 06:09 16.64015 87.56145 34854 ft 477 kts 107°
2026-04-21 06:09 16.62431 87.62856 34854 ft 477 kts 107°
2026-04-21 06:10 16.60845 87.69572 34855 ft 478 kts 107°
2026-04-21 06:10 16.59258 87.76279 34854 ft 478 kts 108°
2026-04-21 06:11 16.57668 87.82987 34852 ft 477 kts 107°
2026-04-21 06:11 16.56078 87.89687 34847 ft 477 kts 107°
2026-04-21 06:12 16.54486 87.96384 34842 ft 478 kts 107°
2026-04-21 06:12 16.52890 88.03088 34839 ft 477 kts 107°
2026-04-21 06:13 16.51292 88.09791 34837 ft 478 kts 107°
2026-04-21 06:13 16.49692 88.16496 34838 ft 478 kts 107°
2026-04-21 06:14 16.48087 88.23204 34839 ft 478 kts 107°
2026-04-21 06:14 16.46480 88.29913 34840 ft 478 kts 107°
2026-04-21 06:15 16.44873 88.36616 34840 ft 478 kts 107°
2026-04-21 06:15 16.43262 88.43322 34841 ft 478 kts 107°
2026-04-21 06:16 16.41652 88.50023 34845 ft 478 kts 107°
2026-04-21 06:16 16.40038 88.56720 34847 ft 477 kts 107°
2026-04-21 06:17 16.38426 88.63406 34850 ft 477 kts 107°
2026-04-21 06:17 16.36813 88.70085 34852 ft 477 kts 107°
2026-04-21 06:18 16.35197 88.76763 34854 ft 477 kts 107°
2026-04-21 06:18 16.33579 88.83444 34855 ft 478 kts 107°
2026-04-21 06:19 16.31957 88.90134 34853 ft 478 kts 107°
2026-04-21 06:19 16.30332 88.96825 34854 ft 478 kts 107°
2026-04-21 06:20 16.28709 89.03513 34855 ft 477 kts 107°
2026-04-21 06:20 16.27084 89.10200 34856 ft 478 kts 107°
2026-04-21 06:21 16.25493 89.16894 34855 ft 477 kts 106°
2026-04-21 06:21 16.23911 89.23594 34855 ft 477 kts 106°
2026-04-21 06:22 16.22328 89.30292 34856 ft 477 kts 106°
2026-04-21 06:22 16.20737 89.37000 34855 ft 478 kts 106°
2026-04-21 06:23 16.19145 89.43707 34856 ft 479 kts 106°
2026-04-21 06:23 16.17549 89.50420 34854 ft 479 kts 106°
2026-04-21 06:24 16.15949 89.57140 34858 ft 479 kts 106°
2026-04-21 06:24 16.14349 89.63855 34854 ft 479 kts 106°
2026-04-21 06:25 16.12746 89.70562 34850 ft 479 kts 106°
2026-04-21 06:25 16.11144 89.77268 34842 ft 478 kts 106°
2026-04-21 06:26 16.09539 89.83969 34837 ft 478 kts 106°
2026-04-21 06:26 16.07933 89.90670 34841 ft 479 kts 106°
2026-04-21 06:27 16.06322 89.97376 34851 ft 479 kts 106°
2026-04-21 06:27 16.04712 90.04086 34855 ft 479 kts 106°
2026-04-21 06:28 16.03098 90.10797 34855 ft 479 kts 106°
2026-04-21 06:28 16.01480 90.17512 34855 ft 480 kts 106°
2026-04-21 06:29 15.99906 90.24231 34855 ft 479 kts 105°
2026-04-21 06:29 15.98348 90.30943 34856 ft 479 kts 105°
2026-04-21 06:30 15.96789 90.37651 34856 ft 478 kts 105°
2026-04-21 06:30 15.95229 90.44347 34855 ft 478 kts 105°
2026-04-21 06:31 15.93666 90.51043 34856 ft 478 kts 105°
2026-04-21 06:31 15.92100 90.57738 34857 ft 478 kts 105°
2026-04-21 06:32 15.90534 90.64423 34855 ft 478 kts 105°
2026-04-21 06:32 15.88965 90.71115 34855 ft 478 kts 105°
2026-04-21 06:33 15.87394 90.77808 34855 ft 478 kts 105°
2026-04-21 06:33 15.85820 90.84502 34855 ft 478 kts 105°
2026-04-21 06:34 15.84244 90.91193 34856 ft 477 kts 105°
2026-04-21 06:34 15.82669 90.97875 34855 ft 477 kts 105°
2026-04-21 06:35 15.81095 91.04536 34855 ft 476 kts 105°
2026-04-21 06:35 15.79520 91.11193 34854 ft 476 kts 105°
2026-04-21 06:36 15.77942 91.17854 34854 ft 476 kts 105°
2026-04-21 06:36 15.76362 91.24516 34854 ft 476 kts 105°
2026-04-21 06:37 15.74781 91.31172 34855 ft 476 kts 105°
2026-04-21 06:37 15.73201 91.37814 34853 ft 475 kts 105°
2026-04-21 06:38 15.71623 91.44440 34848 ft 474 kts 105°
2026-04-21 06:38 15.70043 91.51061 34842 ft 474 kts 105°
2026-04-21 06:39 15.68461 91.57687 34836 ft 474 kts 105°
2026-04-21 06:39 15.66876 91.64313 34833 ft 474 kts 105°
2026-04-21 06:40 15.65291 91.70930 34834 ft 474 kts 105°
2026-04-21 06:40 15.63704 91.77553 34841 ft 474 kts 105°
2026-04-21 06:41 15.62115 91.84172 34844 ft 474 kts 105°
2026-04-21 06:41 15.60530 91.90778 34846 ft 473 kts 105°
2026-04-21 06:42 15.58941 91.97377 34847 ft 472 kts 105°
2026-04-21 06:42 15.57339 92.03972 34853 ft 472 kts 106°
2026-04-21 06:43 15.55721 92.10548 34849 ft 472 kts 106°
2026-04-21 06:43 15.54106 92.17119 34854 ft 471 kts 106°
2026-04-21 06:44 15.52493 92.23687 34856 ft 471 kts 105°
2026-04-21 06:44 15.50880 92.30252 34857 ft 471 kts 105°
2026-04-21 06:45 15.49268 92.36808 34857 ft 471 kts 105°
2026-04-21 06:45 15.47655 92.43358 34858 ft 470 kts 105°
2026-04-21 06:46 15.46041 92.49907 34857 ft 470 kts 105°
2026-04-21 06:46 15.44428 92.56448 34858 ft 468 kts 105°
2026-04-21 06:47 15.42816 92.62970 34858 ft 468 kts 105°
2026-04-21 06:47 15.41311 92.69488 34856 ft 469 kts 104°
2026-04-21 06:48 15.39844 92.76051 34858 ft 468 kts 104°
2026-04-21 06:48 15.38374 92.82605 34857 ft 468 kts 104°
2026-04-21 06:49 15.36900 92.89153 34857 ft 468 kts 104°
2026-04-21 06:49 15.35422 92.95700 34857 ft 468 kts 104°
2026-04-21 06:50 15.33940 93.02245 34854 ft 468 kts 104°
2026-04-21 06:50 15.32459 93.08783 34851 ft 467 kts 104°
2026-04-21 06:51 15.30975 93.15320 34845 ft 468 kts 104°
2026-04-21 06:51 15.29489 93.21858 34838 ft 467 kts 104°
2026-04-21 06:52 15.28001 93.28401 34833 ft 467 kts 104°
2026-04-21 06:52 15.26509 93.34948 34832 ft 468 kts 104°
2026-04-21 06:53 15.25015 93.41492 34831 ft 468 kts 104°
2026-04-21 06:53 15.23521 93.48029 34831 ft 468 kts 104°
2026-04-21 06:54 15.22025 93.54567 34832 ft 468 kts 104°
2026-04-21 06:54 15.20526 93.61107 34831 ft 468 kts 104°
2026-04-21 06:55 15.19026 93.67644 34832 ft 468 kts 104°
2026-04-21 06:55 15.17520 93.74197 34832 ft 468 kts 104°
2026-04-21 06:56 15.16016 93.80727 34830 ft 467 kts 104°
2026-04-21 06:56 15.14512 93.87257 34831 ft 468 kts 104°
2026-04-21 06:57 15.13003 93.93790 34831 ft 468 kts 104°
2026-04-21 06:57 15.11493 94.00323 34833 ft 468 kts 104°
2026-04-21 06:58 15.09981 94.06861 34834 ft 468 kts 104°
2026-04-21 06:58 15.08465 94.13399 34836 ft 468 kts 104°
2026-04-21 06:59 15.06950 94.19932 34838 ft 468 kts 104°
2026-04-21 06:59 15.05432 94.26457 34846 ft 467 kts 104°
2026-04-21 07:00 15.03916 94.32973 34851 ft 467 kts 104°
2026-04-21 07:00 15.02397 94.39488 34855 ft 466 kts 104°
2026-04-21 07:01 15.00880 94.45995 34855 ft 466 kts 104°
2026-04-21 07:01 14.98597 94.55759 34850 ft 466 kts 104°
2026-04-21 07:02 14.97074 94.62266 34847 ft 466 kts 104°
2026-04-21 07:02 14.95547 94.68780 34844 ft 467 kts 104°
2026-04-21 07:03 14.94016 94.75298 34841 ft 466 kts 104°
2026-04-21 07:03 14.92485 94.81808 34840 ft 466 kts 104°
2026-04-21 07:04 14.90956 94.88308 34837 ft 465 kts 104°
2026-04-21 07:04 14.89426 94.94800 34838 ft 465 kts 104°
2026-04-21 07:05 14.87891 95.01300 35019 ft 467 kts 104°
2026-04-21 07:05 14.87124 95.04551 35349 ft 465 kts 104°
2026-04-21 07:05 14.86360 95.07787 35643 ft 464 kts 104°
2026-04-21 07:06 14.85595 95.11021 35869 ft 464 kts 104°
2026-04-21 07:06 14.84829 95.14256 36061 ft 465 kts 104°
2026-04-21 07:06 14.84062 95.17495 36253 ft 465 kts 104°
2026-04-21 07:06 14.83294 95.20735 36447 ft 465 kts 104°
2026-04-21 07:07 14.82525 95.23976 36640 ft 465 kts 104°
2026-04-21 07:07 14.81755 95.27217 36818 ft 466 kts 104°
2026-04-21 07:07 14.80212 95.33710 36833 ft 466 kts 104°
2026-04-21 07:08 14.78669 95.40198 36834 ft 466 kts 104°
2026-04-21 07:08 14.77123 95.46685 36835 ft 465 kts 104°
2026-04-21 07:09 14.75577 95.53167 36835 ft 466 kts 104°
2026-04-21 07:09 14.74028 95.59650 36835 ft 465 kts 104°
2026-04-21 07:10 14.72479 95.66126 36834 ft 466 kts 104°
2026-04-21 07:10 14.70923 95.72622 36835 ft 466 kts 104°
2026-04-21 07:11 14.69368 95.79110 36835 ft 467 kts 104°
2026-04-21 07:11 14.67811 95.85596 36833 ft 466 kts 104°
2026-04-21 07:12 14.66252 95.92078 36825 ft 466 kts 104°
2026-04-21 07:12 14.64694 95.98555 36822 ft 466 kts 104°
2026-04-21 07:13 14.63132 96.05031 36816 ft 466 kts 104°
2026-04-21 07:13 14.61568 96.11508 36816 ft 466 kts 104°
2026-04-21 07:14 14.60002 96.17989 36813 ft 466 kts 104°
2026-04-21 07:14 14.58434 96.24467 36814 ft 466 kts 104°
2026-04-21 07:15 14.56865 96.30947 36815 ft 466 kts 104°
2026-04-21 07:15 14.55293 96.37428 36815 ft 466 kts 104°
2026-04-21 07:16 14.53721 96.43898 36816 ft 466 kts 104°
2026-04-21 07:16 14.52149 96.50363 36812 ft 466 kts 104°
2026-04-21 07:17 14.50574 96.56827 36817 ft 466 kts 104°
2026-04-21 07:17 14.48999 96.63288 36817 ft 465 kts 104°
2026-04-21 07:18 14.47423 96.69742 36819 ft 465 kts 104°
2026-04-21 07:18 14.45852 96.76169 36822 ft 464 kts 104°
2026-04-21 07:19 14.44277 96.82611 36821 ft 464 kts 104°
2026-04-21 07:19 14.42699 96.89053 36825 ft 464 kts 104°
2026-04-21 07:20 14.41118 96.95496 36823 ft 464 kts 104°
2026-04-21 07:20 14.39536 97.01933 36821 ft 464 kts 104°
2026-04-21 07:21 14.37951 97.08375 36825 ft 464 kts 104°
2026-04-21 07:21 14.36364 97.14817 36833 ft 464 kts 104°
2026-04-21 07:22 14.34779 97.21253 36826 ft 464 kts 104°
2026-04-21 07:22 14.33193 97.27679 36826 ft 464 kts 104°
2026-04-21 07:23 14.31605 97.34101 36826 ft 464 kts 104°
2026-04-21 07:23 14.30016 97.40523 36821 ft 463 kts 104°
2026-04-21 07:24 14.28424 97.46948 36813 ft 464 kts 104°
2026-04-21 07:24 14.26830 97.53374 36808 ft 464 kts 104°
2026-04-21 07:25 14.25236 97.59790 36808 ft 463 kts 104°
2026-04-21 07:25 14.23640 97.66209 36805 ft 464 kts 104°
2026-04-21 07:26 14.22038 97.72649 36805 ft 463 kts 104°
2026-04-21 07:26 14.20437 97.79071 36810 ft 463 kts 104°
2026-04-21 07:27 14.18837 97.85485 36814 ft 463 kts 104°
2026-04-21 07:27 14.17233 97.91910 36810 ft 463 kts 104°
2026-04-21 07:28 14.15636 97.98302 36803 ft 464 kts 104°
2026-04-21 07:28 14.14030 98.04725 36807 ft 463 kts 104°
2026-04-21 07:29 14.12423 98.11146 36805 ft 464 kts 104°
2026-04-21 07:29 14.10861 98.17541 36801 ft 463 kts 102°
2026-04-21 07:30 14.09825 98.24091 36806 ft 463 kts 95°
2026-04-21 07:30 14.09366 98.30651 36800 ft 462 kts 93°
2026-04-21 07:31 14.08971 98.37243 36808 ft 463 kts 93°
2026-04-21 07:31 14.08563 98.43845 36797 ft 463 kts 93°
2026-04-21 07:32 14.08145 98.50474 36797 ft 464 kts 93°
2026-04-21 07:32 14.07724 98.57092 36811 ft 464 kts 93°
2026-04-21 07:33 14.07302 98.63696 36823 ft 463 kts 93°
2026-04-21 07:33 14.06877 98.70315 36840 ft 464 kts 93°
2026-04-21 07:34 14.06453 98.76914 36866 ft 464 kts 93°
2026-04-21 07:34 14.06026 98.83541 36866 ft 464 kts 93°
2026-04-21 07:35 14.05601 98.90132 36864 ft 464 kts 93°
2026-04-21 07:35 14.05169 98.96748 36855 ft 464 kts 93°
2026-04-21 07:36 14.04592 99.03352 36845 ft 465 kts 95°
2026-04-21 07:36 14.03941 99.09952 36826 ft 465 kts 95°
2026-04-21 07:37 14.03305 99.16552 36798 ft 464 kts 95°
2026-04-21 07:37 14.02674 99.23191 36765 ft 464 kts 95°
2026-04-21 07:38 14.02050 99.29761 36737 ft 464 kts 95°
2026-04-21 07:38 14.01419 99.36394 36727 ft 465 kts 95°
2026-04-21 07:39 14.00790 99.43007 36724 ft 464 kts 95°
2026-04-21 07:39 14.00155 99.49635 36724 ft 465 kts 95°
2026-04-21 07:40 13.99517 99.56212 36722 ft 465 kts 95°
2026-04-21 07:40 13.98870 99.62859 36719 ft 464 kts 95°
2026-04-21 07:41 13.98232 99.69435 36718 ft 465 kts 95°
2026-04-21 07:41 13.97590 99.76048 36718 ft 464 kts 95°
2026-04-21 07:42 13.96949 99.82630 36716 ft 464 kts 95°
2026-04-21 07:42 13.96305 99.89223 36719 ft 463 kts 95°
2026-04-21 07:43 13.95665 99.95772 36710 ft 463 kts 95°
2026-04-21 07:43 13.95020 100.02338 36712 ft 463 kts 95°
2026-04-21 07:44 13.94370 100.08946 36706 ft 463 kts 95°
2026-04-21 07:44 13.93724 100.15499 36705 ft 463 kts 95°
2026-04-21 07:45 13.93072 100.22106 36704 ft 463 kts 95°
2026-04-21 07:45 13.92420 100.28690 36707 ft 463 kts 95°
2026-04-21 07:46 13.91768 100.35260 36713 ft 462 kts 95°
2026-04-21 07:46 13.91116 100.41814 36724 ft 462 kts 94°
2026-04-21 07:47 13.90463 100.48357 36738 ft 461 kts 95°
2026-04-21 07:47 13.89516 100.54897 36750 ft 462 kts 101°
2026-04-21 07:48 13.87838 100.61279 36754 ft 463 kts 107°
2026-04-21 07:48 13.85456 100.67386 36760 ft 463 kts 114°
2026-04-21 07:49 13.82543 100.73322 36763 ft 464 kts 116°
2026-04-21 07:49 13.79627 100.79185 36766 ft 463 kts 116°
2026-04-21 07:50 13.76688 100.85117 36765 ft 463 kts 116°
2026-04-21 07:50 13.73771 100.90985 36767 ft 463 kts 116°
2026-04-21 07:51 13.70831 100.96890 36765 ft 463 kts 116°
2026-04-21 07:51 13.67904 101.02777 36765 ft 462 kts 116°
2026-04-21 07:52 13.64993 101.08635 36759 ft 462 kts 116°
2026-04-21 07:52 13.62067 101.14519 36752 ft 463 kts 116°
2026-04-21 07:53 13.59136 101.20407 36754 ft 464 kts 116°
2026-04-21 07:53 13.56194 101.26320 36757 ft 465 kts 116°
2026-04-21 07:54 13.53273 101.32190 36758 ft 464 kts 116°
2026-04-21 07:54 13.50324 101.38095 36761 ft 464 kts 116°
2026-04-21 07:55 13.47368 101.44005 36764 ft 464 kts 116°
2026-04-21 07:55 13.44433 101.49884 36770 ft 464 kts 115°
2026-04-21 07:56 13.41481 101.55799 36766 ft 464 kts 116°
2026-04-21 07:56 13.38563 101.61695 36772 ft 464 kts 115°
2026-04-21 07:57 13.35707 101.67623 36774 ft 464 kts 115°
2026-04-21 07:57 13.32860 101.73540 36785 ft 464 kts 115°
2026-04-21 07:58 13.29998 101.79476 36797 ft 464 kts 115°
2026-04-21 07:58 13.27128 101.85424 36796 ft 464 kts 115°
2026-04-21 07:59 13.24284 101.91314 36794 ft 464 kts 115°
2026-04-21 07:59 13.21412 101.97240 36795 ft 464 kts 115°
2026-04-21 08:00 13.18542 102.03148 36793 ft 464 kts 115°
2026-04-21 08:00 13.15671 102.09068 36795 ft 464 kts 115°
2026-04-21 08:01 13.12799 102.14992 36799 ft 464 kts 115°
2026-04-21 08:02 13.08465 102.23925 36808 ft 465 kts 115°
2026-04-21 08:02 13.05600 102.29831 36812 ft 464 kts 115°
2026-04-21 08:03 13.02731 102.35741 36813 ft 464 kts 115°
2026-04-21 08:03 12.99855 102.41668 36810 ft 464 kts 115°
2026-04-21 08:04 12.96995 102.47546 36803 ft 464 kts 115°
2026-04-21 08:04 12.93795 102.53318 36798 ft 465 kts 120°
2026-04-21 08:05 12.90407 102.58992 36804 ft 465 kts 120°
2026-04-21 08:05 12.87036 102.64638 36800 ft 465 kts 120°
2026-04-21 08:06 12.83684 102.70261 36796 ft 465 kts 120°
2026-04-21 08:06 12.80286 102.75964 36786 ft 465 kts 120°
2026-04-21 08:07 12.76914 102.81621 36781 ft 465 kts 120°
2026-04-21 08:07 12.73552 102.87258 36800 ft 465 kts 120°
2026-04-21 08:08 12.70198 102.92881 36817 ft 465 kts 120°
2026-04-21 08:08 12.66830 102.98525 36841 ft 465 kts 120°
2026-04-21 08:09 12.63466 103.04155 36860 ft 465 kts 120°
2026-04-21 08:09 12.60086 103.09806 36863 ft 465 kts 120°
2026-04-21 08:10 12.56721 103.15433 36868 ft 465 kts 120°
2026-04-21 08:10 12.53346 103.21072 36861 ft 465 kts 120°
2026-04-21 08:11 12.49966 103.26717 36851 ft 465 kts 120°
2026-04-21 08:11 12.46605 103.32328 36844 ft 464 kts 120°
2026-04-21 08:12 12.43228 103.37961 36838 ft 464 kts 120°
2026-04-21 08:12 12.39855 103.43584 36828 ft 465 kts 120°
2026-04-21 08:13 12.36489 103.49194 36820 ft 465 kts 119°
2026-04-21 08:13 12.33104 103.54833 36819 ft 465 kts 119°
2026-04-21 08:14 12.29732 103.60450 36809 ft 465 kts 119°
2026-04-21 08:14 12.26363 103.66065 36805 ft 465 kts 120°
2026-04-21 08:15 12.22963 103.71715 36801 ft 465 kts 120°
2026-04-21 08:15 12.19566 103.77310 36805 ft 465 kts 120°
2026-04-21 08:16 12.16149 103.82934 36819 ft 465 kts 120°
2026-04-21 08:16 12.12745 103.88544 36832 ft 465 kts 120°
2026-04-21 08:17 12.09356 103.94132 36820 ft 465 kts 120°
2026-04-21 08:17 12.05944 103.99757 36813 ft 465 kts 120°
2026-04-21 08:18 12.02545 104.05360 36816 ft 466 kts 120°
2026-04-21 08:18 11.99112 104.11017 36851 ft 466 kts 120°
2026-04-21 08:19 11.95715 104.16610 36877 ft 466 kts 120°
2026-04-21 08:19 11.92293 104.22247 36900 ft 466 kts 119°
2026-04-21 08:20 11.88894 104.27833 36907 ft 466 kts 119°
2026-04-21 08:20 11.85469 104.33434 36876 ft 466 kts 119°
2026-04-21 08:21 11.82046 104.39040 36840 ft 465 kts 119°
2026-04-21 08:21 11.78629 104.44645 36806 ft 465 kts 119°
2026-04-21 08:22 11.75213 104.50244 36779 ft 465 kts 119°
2026-04-21 08:22 11.71810 104.55822 36767 ft 466 kts 119°
2026-04-21 08:23 11.68368 104.61460 36760 ft 465 kts 119°
2026-04-21 08:23 11.64955 104.67051 36756 ft 465 kts 119°
2026-04-21 08:24 11.61553 104.72626 36754 ft 465 kts 119°
2026-04-21 08:24 11.58134 104.78221 36745 ft 465 kts 119°
2026-04-21 08:25 11.54852 104.83909 36738 ft 463 kts 115°
2026-04-21 08:25 11.52191 104.89860 36732 ft 461 kts 109°
2026-04-21 08:26 11.49837 104.95929 36727 ft 461 kts 108°
2026-04-21 08:26 11.47486 105.02007 36717 ft 460 kts 108°
2026-04-21 08:27 11.45131 105.08071 36341 ft 459 kts 108°
2026-04-21 08:27 11.43960 105.11080 36048 ft 456 kts 108°
2026-04-21 08:27 11.42794 105.14074 35755 ft 452 kts 108°
2026-04-21 08:27 11.41635 105.17052 35463 ft 450 kts 108°
2026-04-21 08:28 11.40484 105.20004 35174 ft 449 kts 108°
2026-04-21 08:28 11.39341 105.22938 34885 ft 449 kts 108°
2026-04-21 08:28 11.38190 105.25893 34597 ft 450 kts 108°
2026-04-21 08:28 11.37032 105.28862 34307 ft 451 kts 108°
2026-04-21 08:29 11.35871 105.31839 34018 ft 451 kts 108°
2026-04-21 08:29 11.34712 105.34808 33730 ft 452 kts 108°
2026-04-21 08:29 11.33551 105.37783 33443 ft 453 kts 108°
2026-04-21 08:29 11.32387 105.40764 33156 ft 453 kts 108°
2026-04-21 08:30 11.31225 105.43735 32870 ft 451 kts 108°
2026-04-21 08:30 11.30069 105.46690 32587 ft 448 kts 108°
2026-04-21 08:30 11.28919 105.49632 32324 ft 446 kts 108°
2026-04-21 08:30 11.27774 105.52559 32046 ft 444 kts 108°
2026-04-21 08:31 11.26637 105.55467 31759 ft 442 kts 108°
2026-04-21 08:31 11.25505 105.58360 31420 ft 440 kts 108°
2026-04-21 08:31 11.24380 105.61235 31015 ft 437 kts 108°
2026-04-21 08:31 11.23263 105.64090 30581 ft 433 kts 108°
2026-04-21 08:32 11.22153 105.66924 30142 ft 430 kts 108°
2026-04-21 08:32 11.21062 105.69707 29701 ft 427 kts 108°
2026-04-21 08:32 11.19963 105.72514 29254 ft 424 kts 108°
2026-04-21 08:32 11.18879 105.75282 28812 ft 420 kts 108°
2026-04-21 08:33 11.17803 105.78029 28375 ft 417 kts 108°
2026-04-21 08:33 11.16736 105.80754 27935 ft 414 kts 108°
2026-04-21 08:33 11.15677 105.83458 27495 ft 411 kts 108°
2026-04-21 08:33 11.14626 105.86140 27049 ft 407 kts 108°
2026-04-21 08:34 11.13584 105.88801 26605 ft 404 kts 108°
2026-04-21 08:34 11.12549 105.91440 26160 ft 401 kts 108°
2026-04-21 08:34 11.11520 105.94060 25716 ft 398 kts 108°
2026-04-21 08:34 11.10497 105.96660 25267 ft 395 kts 108°
2026-04-21 08:35 11.09479 105.99242 24819 ft 393 kts 108°
2026-04-21 08:35 11.08469 106.01806 24374 ft 390 kts 108°
2026-04-21 08:35 11.07467 106.04355 23931 ft 387 kts 108°
2026-04-21 08:35 11.06473 106.06887 23486 ft 384 kts 108°
2026-04-21 08:36 11.05485 106.09400 23044 ft 381 kts 108°
2026-04-21 08:36 11.04505 106.11893 22606 ft 379 kts 109°
2026-04-21 08:36 11.03530 106.14370 22171 ft 376 kts 109°
2026-04-21 08:36 11.02479 106.16793 21743 ft 375 kts 116°
2026-04-21 08:37 11.01028 106.18997 21304 ft 376 kts 126°
2026-04-21 08:37 10.99215 106.20918 20870 ft 377 kts 134°
2026-04-21 08:37 10.97276 106.22702 20437 ft 375 kts 136°
2026-04-21 08:37 10.95329 106.24459 20003 ft 373 kts 136°
2026-04-21 08:38 10.93394 106.26208 19572 ft 371 kts 136°
2026-04-21 08:38 10.91476 106.27952 19146 ft 369 kts 136°
2026-04-21 08:38 10.89573 106.29690 18726 ft 367 kts 136°
2026-04-21 08:38 10.87683 106.31420 18301 ft 364 kts 136°
2026-04-21 08:39 10.85802 106.33144 17869 ft 362 kts 136°
2026-04-21 08:39 10.83940 106.34852 17446 ft 359 kts 137°
2026-04-21 08:39 10.82091 106.36548 17034 ft 357 kts 137°
2026-04-21 08:39 10.80254 106.38232 16610 ft 355 kts 137°
2026-04-21 08:40 10.78429 106.39906 16184 ft 352 kts 137°
2026-04-21 08:40 10.76615 106.41569 15760 ft 350 kts 137°
2026-04-21 08:40 10.74811 106.43220 15335 ft 348 kts 136°
2026-04-21 08:40 10.73019 106.44862 14917 ft 346 kts 136°
2026-04-21 08:41 10.71238 106.46494 14492 ft 344 kts 136°
2026-04-21 08:41 10.69467 106.48116 14068 ft 341 kts 136°
2026-04-21 08:41 10.67709 106.49727 13660 ft 338 kts 137°
2026-04-21 08:41 10.65987 106.51302 13654 ft 329 kts 137°
2026-04-21 08:42 10.64279 106.52865 13564 ft 331 kts 137°
2026-04-21 08:42 10.62566 106.54433 13125 ft 331 kts 137°
2026-04-21 08:42 10.60855 106.55996 12702 ft 330 kts 137°
2026-04-21 08:42 10.59187 106.57587 12277 ft 328 kts 131°
2026-04-21 08:43 10.57847 106.59441 11863 ft 325 kts 118°
2026-04-21 08:43 10.56893 106.61505 11455 ft 322 kts 111°
2026-04-21 08:43 10.56075 106.63602 11182 ft 314 kts 109°
2026-04-21 08:43 10.55303 106.65608 11074 ft 296 kts 110°
2026-04-21 08:44 10.54563 106.67510 10959 ft 281 kts 110°
2026-04-21 08:44 10.53852 106.69316 10848 ft 270 kts 110°
2026-04-21 08:44 10.53154 106.71076 10484 ft 271 kts 110°
2026-04-21 08:44 10.52447 106.72855 10043 ft 273 kts 109°
2026-04-21 08:45 10.51734 106.74646 9621 ft 274 kts 109°
2026-04-21 08:45 10.51023 106.76430 9216 ft 272 kts 109°
2026-04-21 08:45 10.50321 106.78193 8809 ft 268 kts 109°
2026-04-21 08:45 10.49628 106.79929 8394 ft 264 kts 109°
2026-04-21 08:46 10.48944 106.81647 8004 ft 262 kts 109°
2026-04-21 08:46 10.48264 106.83360 7609 ft 262 kts 108°
2026-04-21 08:46 10.47879 106.85147 7201 ft 259 kts 88°
2026-04-21 08:46 10.48221 106.86900 6945 ft 250 kts 63°
2026-04-21 08:47 10.49246 106.88253 6813 ft 238 kts 38°
2026-04-21 08:47 10.50686 106.88994 6680 ft 229 kts 14°
2026-04-21 08:47 10.52272 106.89159 6582 ft 228 kts
2026-04-21 08:47 10.53871 106.89216 6473 ft 229 kts
2026-04-21 08:48 10.55466 106.89266 6358 ft 228 kts
2026-04-21 08:48 10.57056 106.89321 6235 ft 227 kts
2026-04-21 08:48 10.58647 106.89379 6111 ft 228 kts
2026-04-21 08:48 10.60236 106.89439 5984 ft 228 kts
2026-04-21 08:49 10.61827 106.89501 5861 ft 228 kts
2026-04-21 08:49 10.63417 106.89562 5741 ft 228 kts
2026-04-21 08:49 10.65006 106.89623 5618 ft 228 kts
2026-04-21 08:49 10.66596 106.89685 5504 ft 228 kts
2026-04-21 08:50 10.68186 106.89747 5389 ft 228 kts
2026-04-21 08:50 10.69776 106.89809 5269 ft 228 kts
2026-04-21 08:50 10.71370 106.89873 5144 ft 228 kts
2026-04-21 08:50 10.72967 106.89935 5013 ft 229 kts
2026-04-21 08:51 10.74563 106.89998 4871 ft 227 kts
2026-04-21 08:51 10.76118 106.90056 4722 ft 217 kts
2026-04-21 08:51 10.77576 106.90112 4601 ft 203 kts
2026-04-21 08:51 10.78972 106.90166 4398 ft 198 kts
2026-04-21 08:52 10.80361 106.90222 4384 ft 200 kts
2026-04-21 08:52 10.81757 106.90279 4355 ft 200 kts
2026-04-21 08:52 10.83153 106.90335 4240 ft 200 kts
2026-04-21 08:52 10.84550 106.90390 4120 ft 200 kts
2026-04-21 08:53 10.85950 106.90433 4001 ft 201 kts
2026-04-21 08:53 10.87259 106.89961 3839 ft 205 kts 319°
2026-04-21 08:53 10.87895 106.88699 3668 ft 203 kts 277°
2026-04-21 08:53 10.87972 106.87264 3461 ft 203 kts 268°
2026-04-21 08:54 10.88015 106.85838 3219 ft 200 kts 270°
2026-04-21 08:54 10.88123 106.84425 2867 ft 201 kts 273°
2026-04-21 08:54 10.88292 106.83010 2512 ft 202 kts 274°
2026-04-21 08:54 10.88346 106.81609 2164 ft 196 kts 256°
2026-04-21 08:55 10.87926 106.80325 1938 ft 189 kts 241°
2026-04-21 08:55 10.87382 106.79097 1929 ft 192 kts 241°
2026-04-21 08:55 10.86862 106.77861 1915 ft 183 kts 243°
2026-04-21 08:55 10.86429 106.76743 1926 ft 158 kts 243°
2026-04-21 08:56 10.86050 106.75738 1858 ft 149 kts 243°
2026-04-21 08:56 10.85677 106.74757 1664 ft 148 kts 243°
2026-04-21 08:56 10.85306 106.73776 1483 ft 148 kts 243°
2026-04-21 08:56 10.84943 106.72815 1298 ft 146 kts 243°
2026-04-21 08:57 10.84575 106.71844 1123 ft 147 kts 244°
2026-04-21 08:57 10.84216 106.70888 927 ft 143 kts 244°
2026-04-21 08:57 10.83861 106.69943 776 ft 142 kts 244°
2026-04-21 08:57 10.83516 106.68994 565 ft 143 kts 245°
2026-04-21 08:58 10.83170 106.68040 404 ft 144 kts 245°
2026-04-21 08:58 10.82805 106.67083 242 ft 144 kts 245°
2026-04-21 08:58 10.82434 106.66159 41 ft 136 kts 244°
2026-04-21 08:58 10.82129 106.65378 33 ft 95 kts 255°
2026-04-21 08:59 10.81956 106.64913 34 ft 44 kts 250°
2026-04-21 08:59 10.81856 106.64652 32 ft 36 kts 250°
2026-04-21 08:59 10.81770 106.64451 29 ft 27 kts 233°
2026-04-21 08:59 10.81686 106.64365 27 ft 12 kts 217°
2026-04-21 09:00 10.81622 106.64317 27 ft 11 kts 215°
2026-04-21 09:00 10.81553 106.64293 26 ft 10 kts 171°
2026-04-21 09:00 10.81482 106.64314 27 ft 10 kts 163°
2026-04-21 09:00 10.81416 106.64336 29 ft 9 kts 161°
2026-04-21 09:01 10.81354 106.64361 29 ft 9 kts 158°
2026-04-21 09:01 10.81288 106.64387 29 ft 10 kts 159°
2026-04-21 09:01 10.81233 106.64439 27 ft 12 kts 108°
2026-04-21 09:01 10.81217 106.64532 23 ft 10 kts 98°
2026-04-21 09:02 10.81207 106.64614 22 ft 11 kts 92°
2026-04-21 09:02 10.81228 106.64693 22 ft 12 kts 69°
2026-04-21 09:02 10.81259 106.64777 22 ft 13 kts 69°
2026-04-21 09:03 10.81327 106.64956 25 ft 14 kts 69°
2026-04-21 09:03 10.81340 106.65038 26 ft 10 kts 134°
2026-04-21 09:03 10.81270 106.65070 26 ft 10 kts 159°
2026-04-21 09:03 10.81245 106.65127 26 ft 10 kts 69°
2026-04-21 09:04 10.81272 106.65200 26 ft 11 kts 69°
2026-04-21 09:04 10.81289 106.65245 26 ft 5 kts 64°
2026-04-21 09:04 10.81319 106.65260 26 ft 5 kts 351°
2026-04-21 09:04 10.81362 106.65245 26 ft 6 kts 339°
2026-04-21 09:05 10.81379 106.65238 25 ft 0 kts 339°